Location: Braye
(49.4231°N, 3.3713°E)
Time: 23:18:03
(UTC+00:00)

Daily predictions for brighter satellites

Satellite Brightness Start Highest point End
(mag) Time Altitude Azimuth Time Altitude Azimuth Time Altitude Azimuth
Cosmos 2123 Rocket 4.0 16:26:29 10° S 16:32:40 77° E 16:38:52 10° NNE
ATLAS 3B R/B 4.0 16:27:20 10° WNW 16:32:49 26° NNW 16:38:19 10° NE
PSLV R/B 4.3 16:29:58 10° NNE 16:34:04 46° E 16:38:07 10° S
Cosmos 1340 Rocket 3.3 16:32:37 10° SSW 16:36:38 67° WNW 16:40:42 10° N
Cosmos 1607 3.9 16:30:58 10° NW 16:37:11 73° NE 16:43:26 10° SE
Cosmos 1725 Rocket 4.2 16:31:45 10° N 16:38:08 84° W 16:44:26 10° S
Cosmos 1455 3.0 16:36:20 10° SSW 16:40:01 53° WNW 16:43:43 10° N
Meteor 2-10 Rocket 3.5 16:36:03 10° S 16:41:04 89° W 16:46:11 10° NNE
Sich 1 3.9 16:37:56 10° N 16:41:42 28° ENE 16:45:28 10° SE
CORIOLIS 4.4 16:37:44 10° SE 16:42:56 50° ENE 16:48:11 10° N
COSMO-SKYMED 1 4.3 16:40:54 10° NE 16:43:12 14° E 16:45:30 10° ESE
Cosmos 1869 4.2 16:40:30 10° SSE 16:43:52 27° E 16:47:14 10° NNE
Cosmos 773 Rocket 4.3 16:40:50 10° S 16:45:47 49° ESE 16:50:50 10° NNE
Cosmos 2297 Rocket 2.2 16:40:14 10° NNW 16:45:52 64° ENE 16:51:29 10° SE
Cosmos 2227 Rocket 2.3 16:40:18 10° NNW 16:45:55 60° ENE 16:51:31 10° SE
Lacrosse 4 Rocket 3.0 16:50:14 10° SSE 16:52:51 17° ESE 16:55:10 11° ENE
Cosmos 1867 3.7 16:49:05 10° SW 16:54:34 87° NW 17:00:05 10° NE
Cosmos 1943 Rocket 4.3 16:52:19 10° W 16:56:22 20° NW 17:00:28 10° N
Cosmos 2344 3.8 16:50:29 10° SW 16:58:00 78° NW 17:06:34 10° NE
CZ-4 R/B 2.5 16:58:41 10° ESE 17:02:01 24° ENE 17:05:18 10° N
Cosmos 2221 2.6 17:00:01 10° S 17:04:20 86° W 17:08:43 10° N
H-2A R/B 2.6 17:01:28 10° SSE 17:05:17 73° ENE 17:09:07 10° N
Genesis I 3.3 17:01:37 10° SW 17:05:39 83° NW 17:09:35 10° NE
CZ-4B R/B 4.1 17:04:07 10° NNW 17:06:33 19° WNW 17:09:00 10° WSW
Cosmos 2263 Rocket 3.6 17:02:51 10° N 17:06:39 18° NE 17:09:13 14° ENE
Cosmos 1538 Rocket 4.1 17:04:15 10° S 17:09:25 60° ESE 17:14:40 10° NNE
YAOGAN 1 3.5 17:09:03 10° ESE 17:12:38 26° ENE 17:16:13 10° N
Cosmos 1939 Rocket 4.5 17:13:34 16° ENE 17:13:50 16° ENE 17:16:24 10° NNE
Cosmos 2082 3.7 17:09:01 10° NNW 17:14:37 62° ENE 17:20:10 10° SE
USA 215 3.6 17:11:47 14° E 17:17:18 50° NNE 17:23:33 10° WNW
SMAP 3.4 17:14:28 10° S 17:19:07 72° WSW 17:23:47 10° NNW
ATLAS 5 CENTAUR R/B 2.8 17:14:29 10° NW 17:20:10 69° SW 17:26:42 10° SSE
Cosmos 1697 Rocket 3.3 17:17:53 10° S 17:22:54 34° ESE 17:26:50 15° NE
NOAA 12 4.1 17:18:36 10° SSE 17:23:56 79° ENE 17:29:17 10° NNW
GEOS 3 Rocket 3.7 17:21:14 14° NE 17:25:46 61° SE 17:30:58 10° SSW
Cosmos 2034 Rocket 4.2 17:19:39 10° N 17:25:47 47° ENE 17:31:55 10° SSE
BREEZE-M DEB (TANK) 2.9 17:16:24 10° W 17:26:01 86° S 17:28:08 23° E
USA 229 DEB 3.6 17:19:46 10° SSW 17:26:19 72° SE 17:32:27 13° NE
USA 229 3.6 17:19:54 10° SSW 17:26:25 72° SE 17:32:31 14° NE
NOSS 3-1 (C) 3.3 17:25:46 10° SSW 17:31:18 70° SE 17:36:36 16° NE
NOSS 3-1 (A) 3.6 17:26:21 10° SSW 17:31:39 47° ESE 17:36:01 18° NE
SKYMED 2 4.0 17:27:41 10° NNE 17:31:46 38° E 17:35:50 10° SSE
Cosmos 1633 2.4 17:29:07 10° N 17:32:47 67° E 17:36:24 10° SSE
Okean-O 2.7 17:30:03 10° SSE 17:34:29 81° WSW 17:38:58 10° NNW
Envisat 2.9 17:30:05 10° SSE 17:35:09 80° ENE 17:40:16 10° NNW
Cosmos 1862 3.2 17:32:05 10° N 17:36:02 60° ENE 17:39:58 10° SSE
SeaSat 1 2.5 17:33:03 10° SSE 17:38:00 83° WSW 17:42:58 10° NNW
Meteor 2-2 Rocket 4.5 17:33:14 10° SSW 17:39:05 75° WNW 17:44:51 10° N
Cosmos 1805 Rocket 4.1 17:35:42 10° NNW 17:40:00 60° W 17:44:18 10° S
Cosmos 1656 3.6 17:43:28 10° SSW 17:49:01 85° ESE 17:53:46 14° NNE
ERBS 2.3 17:47:33 10° SW 17:50:49 58° SE 17:51:17 51° ESE
Cosmos 1371 Rocket 4.0 17:45:57 10° NNW 17:51:05 54° ENE 17:55:24 14° SE
Tsikada Rocket 4.3 17:46:07 10° SSE 17:52:02 43° E 17:58:02 10° NNE
BREEZE-M DEB (TANK) 3.6 17:49:18 10° SW 17:53:46 26° SSE 17:54:37 23° SE
NOAA 11 4.3 17:52:44 10° SE 17:57:56 50° ENE 18:03:11 10° N
Geosat 4.0 17:56:17 16° NNE 18:00:23 87° WNW 18:05:25 10° SSW
CSL-04 Debris 4.1 17:55:34 10° SSE 18:01:03 75° ENE 18:06:33 10° NNW
YAOGAN 6 2.5 17:57:50 10° S 18:01:20 79° W 18:04:50 10° NNW
CENTAUR R/B 4.0 18:00:29 10° NW 18:06:48 30° NNE 18:09:53 24° NE
Cosmos 2112 Rocket 4.0 18:02:01 10° S 18:07:05 55° ESE 18:08:59 35° NE
Cosmos 1633 Rocket 3.3 18:04:18 10° NNW 18:08:42 69° W 18:13:05 10° S
NOSS 2-3 (C) 3.8 18:06:52 10° SSW 18:11:10 57° SE 18:12:02 49° E
CZ-2D R/B 4.1 18:14:03 36° NNE 18:14:03 36° NNE 18:16:35 10° N
Cosmos 158 Rocket 4.4 18:08:33 10° S 18:13:16 42° ESE 18:13:16 42° ESE
Cosmos 1464 Rocket 4.4 18:07:44 10° NNW 18:13:50 63° W 18:19:51 10° S
Cosmos 1680 Rocket 3.4 18:08:45 10° SSW 18:13:56 72° ESE 18:16:27 31° NNE
USA 238 DEB 4.4 18:10:32 10° NW 18:17:04 38° NNE 18:18:51 33° ENE
USA 238 4.4 18:10:38 10° NW 18:17:09 37° NNE 18:18:56 33° ENE
CSL-04 Rocket 3.6 18:12:00 10° SSE 18:17:22 84° WSW 18:22:43 10° NNW
Ariane Rocket 3.1 18:17:35 49° E 18:18:06 52° ENE 18:23:02 10° N
COSMO-SKYMED 1 2.7 18:15:50 12° N 18:19:52 72° WNW 18:24:11 10° SSW
Cosmos 1933 Rocket 3.4 18:17:53 10° N 18:21:58 67° NE 18:21:58 67° NE
Cosmos 1151 Rocket 2.9 18:21:15 10° S 18:25:37 88° W 18:27:13 39° N
ATLAS 3B R/B 3.8 18:20:15 10° NW 18:25:42 26° NNE 18:27:04 24° NNE
Cosmos 1328 Rocket 3.5 18:21:37 10° SSW 18:26:02 81° W 18:28:22 28° N
Cosmos 1515 Rocket 4.2 18:22:25 10° S 18:25:22 41° SSE 18:25:22 41° SSE
Cosmos 1980 Rocket 2.2 18:21:46 10° S 18:27:18 58° ESE 18:27:57 55° E
Cosmos 2297 Rocket 4.5 18:25:01 10° NW 18:29:28 24° WSW 18:33:55 10° SSW
Cosmos 2227 Rocket 4.3 18:24:58 10° NW 18:29:36 26° WSW 18:34:12 10° SSW
Lacrosse 4 Rocket 1.7 18:27:04 10° SW 18:31:06 61° NW 18:31:30 57° NNW
Gblst 52 Del rocket 4.4 18:24:35 10° W 18:31:27 74° N 18:32:57 53° ENE
H-2A R/B 3.9 18:38:22 19° NNE 18:38:22 19° NNE 18:40:03 10° N
CZ-4 R/B 2.8 18:32:59 10° SSW 18:36:52 38° W 18:40:43 10° NNW
MOS 1 4.5 18:38:12 51° NE 18:38:12 51° NE 18:42:59 10° N
Cosmos 923 Rocket 4.5 18:34:01 10° SW 18:39:09 58° WNW 18:42:04 25° N
Cosmos 1624 Rocket 4.2 18:37:12 10° NNW 18:42:33 71° WSW 18:45:14 30° S
Cosmos 2056 Rocket 3.6 18:37:52 10° NNW 18:42:59 72° WSW 18:44:58 38° S
Cosmos 1939 Rocket 3.9 18:49:28 43° NW 18:49:28 43° NW 18:52:26 10° NNW
YAOGAN 1 3.9 18:44:30 10° SSW 18:48:34 39° W 18:52:40 10° NNW
Cosmos 2369 4.2 18:45:37 10° SW 18:51:12 56° NW 18:53:44 32° N
Cosmos 2263 Rocket 2.2 18:46:02 10° NNW 18:50:56 63° NNE 18:50:56 63° NNE
USA 215 3.1 18:59:08 69° ESE 19:00:02 86° NNE 19:06:36 10° WNW
Cosmos 2360 4.4 18:59:10 10° SW 19:04:50 69° WNW 19:05:29 63° NNW
Cosmos 1697 Rocket 3.5 19:01:16 10° SW 19:06:43 47° NW 19:08:36 35° N
NOSS 3-2 (C) 4.4 19:00:15 10° NW 19:06:48 43° NNE 19:06:48 43° NNE
Timation 1 Rocket 4.4 19:01:32 10° NNW 19:06:51 70° NNW 19:06:51 70° NNW
Cosmos 2278 4.3 19:04:56 10° SW 19:10:29 54° NW 19:11:42 46° NNW
NOSS 3-1 (A) 4.2 19:16:58 10° WSW 19:22:35 47° NW 19:23:28 44° N
CENTAUR R/B 3.7 19:51:36 10° NW 19:57:05 45° N 19:57:05 45° N
Cosmos 1980 Rocket 4.1 20:06:39 10° WSW 20:09:46 25° W 20:09:46 25° W
ATLAS 3B R/B 4.2 20:11:20 10° NW 20:14:19 27° NNW 20:14:19 27° NNW
